| time (UTC) | temp C | wind direction | speed KPH | gust KPH | rain 1hr cm | rain 24hr cm | rain mn cm | humidity % | barometer mb |
| 20260502190313 | 21 | 291 | 9.7 | 12.9 | 0.00 | 0.00 | 0.00 | 30 | 1019.0 |
| 20260502185809 | 20 | 251 | 3.2 | 4.8 | 0.00 | 0.00 | 0.00 | 31 | 1019.2 |
| 20260502185305 | 20 | 186 | 3.2 | 3.2 | 0.00 | 0.00 | 0.00 | 29 | 1019.2 |
| 20260502184802 | 20 | 207 | 4.8 | 4.8 | 0.00 | 0.00 | 0.00 | 30 | 1019.7 |
| 20260502184257 | 20 | 256 | 3.2 | 4.8 | 0.00 | 0.00 | 0.00 | 31 | 1019.3 |
| 20260502183754 | 20 | 235 | 3.2 | 4.8 | 0.00 | 0.00 | 0.00 | 34 | 1019.5 |
| 20260502183250 | 20 | 338 | 4.8 | 8.0 | 0.00 | 0.00 | 0.00 | 34 | 1019.7 |
| 20260502182746 | 20 | 264 | 0.0 | 0.0 | 0.00 | 0.00 | 0.00 | 32 | 1019.6 |
| 20260502182241 | 20 | 286 | 9.7 | 11.3 | 0.00 | 0.00 | 0.00 | 31 | 1019.7 |
| 20260502181738 | 20 | 210 | 0.0 | 0.0 | 0.00 | 0.00 | 0.00 | 35 | 1019.8 |
| 20260502181238 | 19 | 266 | 0.0 | 0.0 | 0.00 | 0.00 | 0.00 | 34 | 1019.7 |
| 20260502180734 | 18 | 142 | 6.4 | 8.0 | 0.00 | 0.00 | 0.00 | 36 | 1019.6 |
| 20260502180232 | 18 | 340 | 6.4 | 8.0 | 0.00 | 0.00 | 0.00 | 38 | 1020.0 |
| 20260502170156 | 16 | 8 | 4.8 | 4.8 | 0.00 | 0.00 | 0.00 | 43 | 1020.5 |
| 20260502164142 | 15 | 290 | 3.2 | 4.8 | 0.00 | 0.00 | 0.00 | 44 | 1020.7 |
| 20260502163638 | 14 | 14 | 6.4 | 8.0 | 0.00 | 0.00 | 0.00 | 46 | 1020.7 |
| 20260502163135 | 13 | 286 | 4.8 | 4.8 | 0.00 | 0.00 | 0.00 | 46 | 1020.7 |
| 20260502162632 | 13 | 334 | 6.4 | 9.7 | 0.00 | 0.00 | 0.00 | 48 | 1020.7 |
| 20260502162129 | 13 | 298 | 8.0 | 9.7 | 0.00 | 0.00 | 0.00 | 49 | 1020.8 |
| 20260502161626 | 13 | 31 | 6.4 | 8.0 | 0.00 | 0.00 | 0.00 | 47 | 1020.8 |
| 20260502161123 | 12 | 24 | 4.8 | 8.0 | 0.00 | 0.00 | 0.00 | 49 | 1020.8 |
| 20260502160621 | 12 | 331 | 4.8 | 4.8 | 0.00 | 0.00 | 0.00 | 51 | 1020.7 |
| 20260502160120 | 12 | 343 | 8.0 | 12.9 | 0.00 | 0.00 | 0.00 | 50 | 1020.5 |
| 20260502152034 | 10 | 299 | 8.0 | 9.7 | 0.00 | 0.00 | 0.00 | 58 | 1020.7 |
| 20260502151531 | 9 | 318 | 8.0 | 11.3 | 0.00 | 0.00 | 0.00 | 60 | 1020.8 |
| 20260502151028 | 9 | 289 | 8.0 | 9.7 | 0.00 | 0.00 | 0.00 | 60 | 1021.1 |
| 20260502150526 | 8 | 288 | 6.4 | 9.7 | 0.00 | 0.00 | 0.00 | 61 | 1020.7 |
| 20260502130410 | 1 | 247 | 0.0 | 0.0 | 0.00 | 0.00 | 0.00 | 84 | 1020.5 |
| 20260502123353 | -1 | 268 | 0.0 | 0.0 | 0.00 | 0.00 | 0.00 | 89 | 1020.6 |
| 20260502122850 | 0 | 259 | 0.0 | 0.0 | 0.00 | 0.00 | 0.00 | 88 | 1020.5 |
| 20260502122345 | 0 | 259 | 0.0 | 0.0 | 0.00 | 0.00 | 0.00 | 88 | 1020.7 |
| 20260502121845 | 0 | 251 | 0.0 | 0.0 | 0.00 | 0.00 | 0.00 | 87 | 1020.5 |
| 20260502121341 | 0 | 250 | 0.0 | 0.0 | 0.00 | 0.00 | 0.00 | 87 | 1020.5 |
| 20260502120839 | 0 | 242 | 0.0 | 0.0 | 0.00 | 0.00 | 0.00 | 88 | 1020.5 |
| 20260502120335 | 0 | 242 | 0.0 | 0.0 | 0.00 | 0.00 | 0.00 | 87 | 1020.6 |
| 20260502115832 | 0 | 242 | 0.0 | 0.0 | 0.00 | 0.00 | 0.00 | 87 | 1020.4 |
| 20260502115329 | 0 | 242 | 0.0 | 0.0 | 0.00 | 0.00 | 0.00 | 87 | 1020.7 |
| 20260502114826 | 0 | 242 | 0.0 | 0.0 | 0.00 | 0.00 | 0.00 | 87 | 1020.8 |
| 20260502114323 | 0 | 242 | 0.0 | 0.0 | 0.00 | 0.00 | 0.00 | 86 | 1020.8 |
| 20260502113820 | 0 | 243 | 0.0 | 0.0 | 0.00 | 0.00 | 0.00 | 87 | 1020.7 |
| 20260502113317 | 0 | 244 | 0.0 | 0.0 | 0.00 | 0.00 | 0.00 | 87 | 1020.8 |
| 20260502112816 | 0 | 244 | 0.0 | 0.0 | 0.00 | 0.00 | 0.00 | 87 | 1020.8 |
| 20260502112312 | 0 | 244 | 0.0 | 0.0 | 0.00 | 0.00 | 0.00 | 86 | 1020.6 |
| 20260502111810 | 0 | 244 | 0.0 | 0.0 | 0.00 | 0.00 | 0.00 | 86 | 1020.7 |
| 20260502111307 | 0 | 244 | 0.0 | 0.0 | 0.00 | 0.00 | 0.00 | 86 | 1020.7 |
| 20260502110805 | 0 | 245 | 0.0 | 0.0 | 0.00 | 0.00 | 0.00 | 87 | 1020.7 |
| 20260502110302 | 0 | 245 | 0.0 | 0.0 | 0.00 | 0.00 | 0.00 | 86 | 1020.6 |
| 20260502105800 | 0 | 245 | 0.0 | 0.0 | 0.00 | 0.00 | 0.00 | 86 | 1020.7 |
| 20260502105256 | 0 | 245 | 0.0 | 0.0 | 0.00 | 0.00 | 0.00 | 86 | 1021.0 |
| 20260502104754 | 0 | 245 | 0.0 | 0.0 | 0.00 | 0.00 | 0.00 | 85 | 1020.8 |
| 20260502104251 | 0 | 245 | 0.0 | 0.0 | 0.00 | 0.00 | 0.00 | 86 | 1020.7 |
| 20260502103749 | 0 | 245 | 0.0 | 0.0 | 0.00 | 0.00 | 0.00 | 85 | 1021.2 |
| 20260502103246 | 0 | 245 | 0.0 | 0.0 | 0.00 | 0.00 | 0.00 | 85 | 1020.8 |
| 20260502102743 | 0 | 245 | 0.0 | 0.0 | 0.00 | 0.00 | 0.00 | 85 | 1020.7 |
| 20260502102239 | 0 | 245 | 0.0 | 0.0 | 0.00 | 0.00 | 0.00 | 85 | 1020.5 |
| 20260502101738 | 0 | 245 | 0.0 | 0.0 | 0.00 | 0.00 | 0.00 | 85 | 1020.7 |
| 20260502101235 | 0 | 245 | 0.0 | 0.0 | 0.00 | 0.00 | 0.00 | 85 | 1020.5 |
| 20260502100733 | 0 | 245 | 0.0 | 0.0 | 0.00 | 0.00 | 0.00 | 83 | 1020.7 |
| 20260502100232 | 0 | 245 | 0.0 | 0.0 | 0.00 | 0.00 | 0.00 | 83 | 1020.6 |
| 20260502091206 | 2 | 193 | 0.0 | 0.0 | 0.00 | 0.00 | 0.00 | 77 | 1020.3 |
| 20260502090703 | 1 | 217 | 0.0 | 0.0 | 0.00 | 0.00 | 0.00 | 75 | 1020.4 |
| 20260502090200 | 1 | 216 | 0.0 | 0.0 | 0.00 | 0.00 | 0.00 | 76 | 1020.5 |
| 20260502071055 | 3 | 190 | 0.0 | 0.0 | 0.00 | 0.00 | 0.00 | 71 | 1020.3 |
| 20260502070553 | 2 | 231 | 0.0 | 0.0 | 0.00 | 0.00 | 0.00 | 72 | 1020.0 |
| 20260502070051 | 2 | 231 | 0.0 | 0.0 | 0.00 | 0.00 | 0.00 | 71 | 1020.2 |
| 20260502065549 | 2 | 232 | 0.0 | 0.0 | 0.00 | 0.00 | 0.00 | 72 | 1020.2 |
| 20260502065047 | 2 | 232 | 0.0 | 0.0 | 0.00 | 0.00 | 0.00 | 72 | 1020.2 |
| 20260502064545 | 2 | 231 | 0.0 | 0.0 | 0.00 | 0.00 | 0.00 | 71 | 1020.3 |
| 20260502064042 | 3 | 231 | 0.0 | 0.0 | 0.00 | 0.00 | 0.00 | 67 | 1019.9 |
| 20260502063540 | 3 | 231 | 0.0 | 0.0 | 0.00 | 0.00 | 0.00 | 66 | 1019.9 |
| 20260502063037 | 3 | 231 | 0.0 | 0.0 | 0.00 | 0.00 | 0.00 | 65 | 1020.0 |
| 20260502062534 | 3 | 231 | 0.0 | 0.0 | 0.00 | 0.00 | 0.00 | 68 | 1020.2 |
| 20260502062032 | 3 | 263 | 0.0 | 0.0 | 0.00 | 0.00 | 0.00 | 70 | 1019.8 |
| 20260502061530 | 3 | 263 | 0.0 | 0.0 | 0.00 | 0.00 | 0.00 | 71 | 1019.9 |
| 20260502061027 | 3 | 263 | 0.0 | 0.0 | 0.00 | 0.00 | 0.00 | 72 | 1019.9 |
| 20260502060522 | 3 | 266 | 0.0 | 0.0 | 0.00 | 0.00 | 0.00 | 72 | 1019.7 |
| 20260502060019 | 3 | 260 | 0.0 | 0.0 | 0.00 | 0.00 | 0.00 | 72 | 1020.2 |
| 20260502055516 | 3 | 260 | 0.0 | 0.0 | 0.00 | 0.00 | 0.00 | 71 | 1019.9 |
| 20260502055015 | 3 | 260 | 0.0 | 0.0 | 0.00 | 0.00 | 0.00 | 73 | 1019.9 |
| 20260502054513 | 3 | 259 | 0.0 | 0.0 | 0.00 | 0.00 | 0.00 | 72 | 1019.8 |
| 20260502054010 | 3 | 260 | 0.0 | 0.0 | 0.00 | 0.00 | 0.00 | 71 | 1019.7 |
| 20260502053507 | 3 | 261 | 0.0 | 0.0 | 0.00 | 0.00 | 0.00 | 71 | 1019.7 |
| 20260502053005 | 3 | 256 | 0.0 | 0.0 | 0.00 | 0.00 | 0.00 | 72 | 1019.9 |
| 20260502052503 | 3 | 256 | 0.0 | 0.0 | 0.00 | 0.00 | 0.00 | 72 | 1019.9 |
| 20260502052001 | 3 | 256 | 0.0 | 0.0 | 0.00 | 0.00 | 0.00 | 71 | 1019.8 |
| 20260502051459 | 3 | 256 | 0.0 | 0.0 | 0.00 | 0.00 | 0.00 | 71 | 1019.9 |
| 20260502050955 | 3 | 257 | 1.6 | 1.6 | 0.00 | 0.00 | 0.00 | 70 | 1019.9 |
| 20260502050452 | 3 | 256 | 0.0 | 0.0 | 0.00 | 0.00 | 0.00 | 72 | 1019.8 |
| 20260502045949 | 3 | 256 | 0.0 | 0.0 | 0.00 | 0.00 | 0.00 | 71 | 1019.9 |
| 20260502045446 | 3 | 256 | 0.0 | 0.0 | 0.00 | 0.00 | 0.00 | 71 | 1019.9 |
| 20260502044943 | 4 | 256 | 0.0 | 0.0 | 0.00 | 0.00 | 0.00 | 71 | 1019.7 |
| 20260502044438 | 4 | 256 | 0.0 | 0.0 | 0.00 | 0.00 | 0.00 | 69 | 1019.9 |
| 20260502043936 | 5 | 251 | 0.0 | 0.0 | 0.00 | 0.00 | 0.00 | 67 | 1019.9 |
| 20260502043434 | 5 | 237 | 0.0 | 0.0 | 0.00 | 0.00 | 0.00 | 64 | 1019.9 |
| 20260502042933 | 5 | 220 | 0.0 | 0.0 | 0.00 | 0.00 | 0.00 | 63 | 1019.8 |
| 20260502042430 | 6 | 219 | 0.0 | 0.0 | 0.00 | 0.00 | 0.00 | 62 | 1019.7 |
| 20260502041927 | 6 | 216 | 0.0 | 0.0 | 0.00 | 0.00 | 0.00 | 59 | 1019.9 |
| 20260502041425 | 6 | 220 | 0.0 | 0.0 | 0.00 | 0.00 | 0.00 | 61 | 1019.7 |
| 20260502040922 | 6 | 227 | 0.0 | 0.0 | 0.00 | 0.00 | 0.00 | 62 | 1019.7 |
| 20260502040418 | 6 | 235 | 0.0 | 0.0 | 0.00 | 0.00 | 0.00 | 60 | 1019.9 |
| 20260502035915 | 7 | 235 | 0.0 | 0.0 | 0.00 | 0.00 | 0.00 | 58 | 1019.6 |
| 20260502035411 | 7 | 236 | 0.0 | 0.0 | 0.00 | 0.00 | 0.00 | 54 | 1019.7 |
| 20260502034909 | 7 | 220 | 6.4 | 9.7 | 0.00 | 0.00 | 0.00 | 58 | 1019.7 |
| 20260502034408 | 7 | 231 | 0.0 | 0.0 | 0.00 | 0.00 | 0.00 | 61 | 1019.3 |
| 20260502033906 | 8 | 231 | 0.0 | 0.0 | 0.00 | 0.00 | 0.00 | 62 | 1019.5 |
| 20260502033403 | 8 | 231 | 0.0 | 0.0 | 0.00 | 0.00 | 0.00 | 61 | 1019.7 |
| 20260502032859 | 10 | 231 | 0.0 | 0.0 | 0.00 | 0.00 | 0.00 | 56 | 1019.7 |
| 20260502032355 | 10 | 208 | 0.0 | 0.0 | 0.00 | 0.00 | 0.00 | 45 | 1019.3 |
| 20260502031853 | 12 | 231 | 0.0 | 0.0 | 0.00 | 0.00 | 0.00 | 42 | 1019.3 |
| 20260502031351 | 12 | 231 | 0.0 | 0.0 | 0.00 | 0.00 | 0.00 | 36 | 1019.3 |
| 20260502030849 | 12 | 231 | 0.0 | 0.0 | 0.00 | 0.00 | 0.00 | 35 | 1019.1 |
| 20260502030347 | 13 | 233 | 0.0 | 0.0 | 0.00 | 0.00 | 0.00 | 35 | 1019.1 |
| 20260502025844 | 13 | 233 | 0.0 | 0.0 | 0.00 | 0.00 | 0.00 | 33 | 1019.1 |
| 20260502025342 | 12 | 233 | 0.0 | 0.0 | 0.00 | 0.00 | 0.00 | 34 | 1019.0 |
| 20260502024839 | 12 | 235 | 0.0 | 0.0 | 0.00 | 0.00 | 0.00 | 35 | 1019.1 |
| 20260502024337 | 12 | 235 | 0.0 | 0.0 | 0.00 | 0.00 | 0.00 | 36 | 1019.0 |
| 20260502023835 | 13 | 235 | 0.0 | 0.0 | 0.00 | 0.00 | 0.00 | 36 | 1019.0 |
| 20260502023332 | 13 | 235 | 0.0 | 0.0 | 0.00 | 0.00 | 0.00 | 35 | 1018.7 |
| 20260502022830 | 13 | 235 | 0.0 | 0.0 | 0.00 | 0.00 | 0.00 | 35 | 1018.9 |
| 20260502022326 | 14 | 235 | 0.0 | 0.0 | 0.00 | 0.00 | 0.00 | 34 | 1019.0 |
| 20260502021823 | 15 | 235 | 0.0 | 0.0 | 0.00 | 0.00 | 0.00 | 31 | 1018.8 |
| 20260502021320 | 15 | 235 | 0.0 | 0.0 | 0.00 | 0.00 | 0.00 | 32 | 1018.7 |
| 20260502020818 | 15 | 236 | 0.0 | 0.0 | 0.00 | 0.00 | 0.00 | 31 | 1018.8 |
| 20260502020315 | 15 | 236 | 0.0 | 0.0 | 0.00 | 0.00 | 0.00 | 30 | 1018.9 |
| 20260502015812 | 16 | 248 | 0.0 | 0.0 | 0.00 | 0.00 | 0.00 | 29 | 1018.9 |
| 20260502015309 | 16 | 248 | 0.0 | 0.0 | 0.00 | 0.00 | 0.00 | 27 | 1019.1 |
| 20260502014806 | 16 | 248 | 0.0 | 0.0 | 0.00 | 0.00 | 0.00 | 24 | 1019.0 |
| 20260502014303 | 16 | 248 | 0.0 | 0.0 | 0.00 | 0.00 | 0.00 | 23 | 1018.8 |
| 20260502013759 | 17 | 248 | 0.0 | 0.0 | 0.00 | 0.00 | 0.00 | 22 | 1018.9 |
| 20260502013255 | 17 | 259 | 0.0 | 0.0 | 0.00 | 0.00 | 0.00 | 20 | 1018.9 |
| 20260502012751 | 18 | 259 | 0.0 | 0.0 | 0.00 | 0.00 | 0.00 | 20 | 1018.9 |
| 20260502012249 | 18 | 260 | 0.0 | 0.0 | 0.00 | 0.00 | 0.00 | 19 | 1018.8 |
| 20260502011747 | 18 | 261 | 0.0 | 0.0 | 0.00 | 0.00 | 0.00 | 22 | 1019.1 |
| 20260502011242 | 18 | 263 | 0.0 | 0.0 | 0.00 | 0.00 | 0.00 | 22 | 1019.0 |
| 20260502010740 | 19 | 294 | 1.6 | 1.6 | 0.00 | 0.00 | 0.00 | 19 | 1019.1 |
| 20260502010236 | 19 | 273 | 0.0 | 0.0 | 0.00 | 0.00 | 0.00 | 20 | 1018.9 |
| 20260502005733 | 19 | 259 | 0.0 | 0.0 | 0.00 | 0.00 | 0.00 | 23 | 1019.0 |
| 20260502005231 | 19 | 276 | 0.0 | 0.0 | 0.00 | 0.00 | 0.00 | 21 | 1019.2 |
| 20260502004728 | 20 | 264 | 0.0 | 0.0 | 0.00 | 0.00 | 0.00 | 23 | 1019.3 |
| 20260502004224 | 18 | 270 | 0.0 | 0.0 | 0.00 | 0.00 | 0.00 | 23 | 1019.2 |
| 20260502003722 | 18 | 309 | 1.6 | 3.2 | 0.00 | 0.00 | 0.00 | 24 | 1019.2 |
| 20260502003219 | 19 | 316 | 1.6 | 3.2 | 0.00 | 0.00 | 0.00 | 25 | 1019.2 |
| 20260502002714 | 19 | 3 | 0.0 | 0.0 | 0.00 | 0.00 | 0.00 | 25 | 1019.2 |
| 20260502002213 | 18 | 271 | 0.0 | 0.0 | 0.00 | 0.00 | 0.00 | 24 | 1019.2 |
| 20260502001709 | 18 | 291 | 1.6 | 3.2 | 0.00 | 0.00 | 0.00 | 24 | 1019.1 |
| 20260502001208 | 18 | 290 | 3.2 | 3.2 | 0.00 | 0.00 | 0.00 | 27 | 1019.1 |
| 20260502000705 | 18 | 273 | 1.6 | 3.2 | 0.00 | 0.00 | 0.00 | 27 | 1019.1 |
| 20260502000204 | 18 | 268 | 1.6 | 1.6 | 0.00 | 0.00 | 0.00 | 28 | 1019.1 |
| 20260501235658 | 19 | 328 | 4.8 | 8.0 | 0.00 | 0.00 | 0.00 | 25 | 1019.2 |
| 20260501235154 | 18 | 255 | 0.0 | 0.0 | 0.00 | 0.00 | 0.00 | 26 | 1019.0 |
| 20260501234650 | 18 | 13 | 3.2 | 8.0 | 0.00 | 0.00 | 0.00 | 26 | 1019.2 |
| 20260501234147 | 18 | 285 | 3.2 | 3.2 | 0.00 | 0.00 | 0.00 | 25 | 1019.3 |
| 20260501233645 | 18 | 296 | 1.6 | 3.2 | 0.00 | 0.00 | 0.00 | 26 | 1019.3 |
| 20260501233142 | 18 | 297 | 4.8 | 8.0 | 0.00 | 0.00 | 0.00 | 27 | 1019.3 |
| 20260501232638 | 18 | 308 | 3.2 | 3.2 | 0.00 | 0.00 | 0.00 | 25 | 1019.3 |
| 20260501232136 | 18 | 270 | 3.2 | 3.2 | 0.00 | 0.00 | 0.00 | 25 | 1019.5 |
| 20260501231633 | 18 | 279 | 4.8 | 4.8 | 0.00 | 0.00 | 0.00 | 28 | 1019.3 |
| 20260501231131 | 19 | 317 | 4.8 | 8.0 | 0.00 | 0.00 | 0.00 | 25 | 1019.2 |
| 20260501230630 | 18 | 245 | 4.8 | 8.0 | 0.00 | 0.00 | 0.00 | 24 | 1019.6 |
| 20260501230128 | 18 | 304 | 3.2 | 3.2 | 0.00 | 0.00 | 0.00 | 24 | 1019.7 |
| 20260501225625 | 18 | 270 | 0.0 | 0.0 | 0.00 | 0.00 | 0.00 | 23 | 1019.6 |
| 20260501225121 | 18 | 283 | 3.2 | 4.8 | 0.00 | 0.00 | 0.00 | 23 | 1019.3 |
| 20260501224618 | 18 | 344 | 11.3 | 11.3 | 0.00 | 0.00 | 0.00 | 24 | 1019.6 |
| 20260501224115 | 18 | 296 | 8.0 | 9.7 | 0.00 | 0.00 | 0.00 | 23 | 1019.5 |
| 20260501223612 | 18 | 359 | 4.8 | 8.0 | 0.00 | 0.00 | 0.00 | 25 | 1019.9 |
| 20260501223108 | 18 | 283 | 3.2 | 4.8 | 0.00 | 0.00 | 0.00 | 25 | 1019.7 |
| 20260501222604 | 18 | 239 | 0.0 | 0.0 | 0.00 | 0.00 | 0.00 | 23 | 1019.7 |
| 20260501222101 | 18 | 306 | 0.0 | 0.0 | 0.00 | 0.00 | 0.00 | 25 | 1019.8 |
| 20260501221558 | 17 | 240 | 0.0 | 1.6 | 0.00 | 0.00 | 0.00 | 26 | 1019.7 |
| 20260501221055 | 18 | 312 | 11.3 | 16.1 | 0.00 | 0.00 | 0.00 | 27 | 1019.9 |
| 20260501220553 | 18 | 280 | 0.0 | 0.0 | 0.00 | 0.00 | 0.00 | 24 | 1020.0 |
| 20260501220050 | 18 | 290 | 0.0 | 0.0 | 0.00 | 0.00 | 0.00 | 23 | 1020.2 |
| 20260501215546 | 17 | 314 | 0.0 | 0.0 | 0.00 | 0.00 | 0.00 | 24 | 1020.3 |
| 20260501215041 | 18 | 326 | 11.3 | 12.9 | 0.00 | 0.00 | 0.00 | 26 | 1020.2 |
| 20260501214537 | 18 | 67 | 3.2 | 3.2 | 0.00 | 0.00 | 0.00 | 30 | 1020.3 |
| 20260501214033 | 18 | 267 | 6.4 | 8.0 | 0.00 | 0.00 | 0.00 | 26 | 1020.4 |
| 20260501213530 | 18 | 277 | 8.0 | 11.3 | 0.00 | 0.00 | 0.00 | 29 | 1020.3 |
| 20260501213026 | 18 | 295 | 1.6 | 1.6 | 0.00 | 0.00 | 0.00 | 28 | 1020.4 |
| 20260501212522 | 17 | 218 | 0.0 | 0.0 | 0.00 | 0.00 | 0.00 | 31 | 1020.6 |
| 20260501212020 | 18 | 271 | 3.2 | 4.8 | 0.00 | 0.00 | 0.00 | 30 | 1020.5 |
| 20260501211516 | 18 | 82 | 4.8 | 4.8 | 0.00 | 0.00 | 0.00 | 30 | 1020.5 |
| 20260501211015 | 17 | 3 | 6.4 | 8.0 | 0.00 | 0.00 | 0.00 | 30 | 1020.7 |
| 20260501210510 | 17 | 338 | 8.0 | 8.0 | 0.00 | 0.00 | 0.00 | 30 | 1020.7 |
| 20260501210007 | 17 | 311 | 0.0 | 1.6 | 0.00 | 0.00 | 0.00 | 31 | 1020.6 |
| 20260501205504 | 17 | 288 | 1.6 | 4.8 | 0.00 | 0.00 | 0.00 | 34 | 1020.5 |
| 20260501205001 | 17 | 266 | 9.7 | 11.3 | 0.00 | 0.00 | 0.00 | 32 | 1020.8 |
| 20260501204457 | 17 | 219 | 0.0 | 0.0 | 0.00 | 0.00 | 0.00 | 31 | 1020.7 |
| 20260501203953 | 17 | 354 | 4.8 | 4.8 | 0.00 | 0.00 | 0.00 | 32 | 1020.7 |
| 20260501203450 | 17 | 355 | 14.5 | 16.1 | 0.00 | 0.00 | 0.00 | 32 | 1020.8 |
| 20260501202948 | 17 | 347 | 4.8 | 8.0 | 0.00 | 0.00 | 0.00 | 32 | 1020.8 |
| 20260501202444 | 16 | 259 | 3.2 | 4.8 | 0.00 | 0.00 | 0.00 | 32 | 1020.7 |
| 20260501201941 | 17 | 285 | 6.4 | 8.0 | 0.00 | 0.00 | 0.00 | 31 | 1021.0 |
| 20260501201438 | 17 | 287 | 3.2 | 3.2 | 0.00 | 0.00 | 0.00 | 34 | 1020.8 |
| 20260501200935 | 17 | 237 | 0.0 | 0.0 | 0.00 | 0.00 | 0.00 | 31 | 1021.1 |
| 20260501200432 | 17 | 12 | 6.4 | 8.0 | 0.00 | 0.00 | 0.00 | 33 | 1021.2 |
| 20260501195929 | 17 | 341 | 9.7 | 11.3 | 0.00 | 0.00 | 0.00 | 32 | 1021.1 |
| 20260501195426 | 17 | 212 | 6.4 | 8.0 | 0.00 | 0.00 | 0.00 | 33 | 1021.0 |
| 20260501194921 | 16 | 223 | 4.8 | 4.8 | 0.00 | 0.00 | 0.00 | 33 | 1021.1 |
| 20260501194418 | 16 | 265 | 3.2 | 3.2 | 0.00 | 0.00 | 0.00 | 33 | 1021.1 |
| 20260501193914 | 16 | 212 | 0.0 | 1.6 | 0.00 | 0.00 | 0.00 | 35 | 1021.3 |
| 20260501193412 | 16 | 23 | 8.0 | 11.3 | 0.00 | 0.00 | 0.00 | 34 | 1021.3 |
| 20260501192910 | 16 | 251 | 6.4 | 9.7 | 0.00 | 0.00 | 0.00 | 35 | 1021.3 |
| 20260501192407 | 16 | 322 | 3.2 | 3.2 | 0.00 | 0.00 | 0.00 | 33 | 1021.2 |
| 20260501191904 | 16 | 274 | 3.2 | 3.2 | 0.00 | 0.00 | 0.00 | 36 | 1021.2 |
| 20260501191401 | 16 | 348 | 9.7 | 11.3 | 0.00 | 0.00 | 0.00 | 36 | 1021.1 |
| 20260501190858 | 16 | 256 | 4.8 | 4.8 | 0.00 | 0.00 | 0.00 | 34 | 1021.3 |